DW5274 Weather Reports


Display with metric or nautical units.
time (UTC)temp
F
wind
direction
speed
MPH
gust
MPH
rain 1hr
in
rain 24hr
in
rain mn
in
humidity
%
barometer
mb
20260509021537 75 30 0.0 0.0 0.00 0.00 0.00 25 1010.9
20260509020019 75 28 0.0 0.0 0.00 0.00 0.00 25 1010.7
20260509014518 74 30 1.0 0.0 0.00 0.00 0.00 25 1010.7
20260509013111 75 32 1.0 0.0 0.00 0.00 0.00 25 1010.7
20260509011600 76 34 3.0 0.0 0.00 0.00 0.00 23 1010.7
20260509010044 76 28 4.0 0.0 0.00 0.00 0.00 22 1010.8
20260509004548 76 26 0.0 0.0 0.00 0.00 0.00 23 1010.9
20260509003021 76 43 0.0 0.0 0.00 0.00 0.00 23 1010.9
20260509001520 75 24 0.0 0.0 0.00 0.00 0.00 22 1011.1
20260509000001 77 34 0.0 0.0 0.00 0.00 0.00 21 1011.1
20260508234610 78 40 0.0 0.0 0.00 0.00 0.00 22 1011.1
20260508233045 77 32 3.0 0.0 0.00 0.00 0.00 21 1011.3
20260508231549 76 22 0.0 0.0 0.00 0.00 0.00 23 1011.2
20260508230042 75 34 0.0 0.0 0.00 0.00 0.00 22 1011.3
20260508224541 75 34 0.0 0.0 0.00 0.00 0.00 23 1011.4
20260508223039 74 25 4.0 0.0 0.00 0.00 0.00 25 1011.7
20260508221539 75 36 4.0 0.0 0.00 0.00 0.00 25 1011.9
20260508220041 77 355 3.0 0.0 0.00 0.00 0.00 25 1012.1
20260508214532 76 338 1.0 0.0 0.00 0.00 0.00 28 1012.2
20260508213019 74 26 3.0 0.0 0.00 0.00 0.00 27 1012.3
20260508211510 75 338 3.0 0.0 0.00 0.00 0.00 26 1012.5
20260508210052 75 263 0.0 0.0 0.00 0.00 0.00 26 1012.4
20260508204602 74 334 0.0 0.0 0.00 0.00 0.00 27 1012.4
20260508203038 75 333 0.0 0.0 0.00 0.00 0.00 24 1012.5
20260508201538 75 333 1.0 0.0 0.00 0.00 0.00 26 1012.7
20260508200015 75 322 3.0 0.0 0.00 0.00 0.00 27 1012.9
20260508194514 75 268 2.0 0.0 0.00 0.00 0.00 26 1012.9
20260508193114 74 323 0.0 0.0 0.00 0.00 0.00 26 1012.9
20260508191558 74 338 2.0 0.0 0.00 0.00 0.00 28 1013.0
20260508190105 73 323 0.0 0.0 0.00 0.00 0.00 26 1013.2
20260508184538 73 325 0.0 0.0 0.00 0.00 0.00 28 1013.3
20260508183039 73 324 0.0 0.0 0.00 0.00 0.00 27 1013.5
20260508181540 72 325 0.0 0.0 0.00 0.00 0.00 29 1013.7
20260508180019 71 325 0.0 0.0 0.00 0.00 0.00 28 1013.8
20260508174514 70 322 0.0 0.0 0.00 0.00 0.00 28 1013.7
20260508173005 70 321 0.0 0.0 0.00 0.00 0.00 36 1013.8
20260508171505 68 321 0.0 0.0 0.00 0.00 0.00 37 1013.9
20260508170004 67 326 3.0 0.0 0.00 0.00 0.00 38 1013.9
20260508164504 67 333 2.0 0.0 0.00 0.00 0.00 39 1014.0
20260508163003 66 336 2.0 0.0 0.00 0.00 0.00 40 1014.0
20260508161505 65 338 3.0 0.0 0.00 0.00 0.00 38 1013.9
20260508160003 64 340 1.0 0.0 0.00 0.00 0.00 41 1014.0
20260508154555 63 336 0.0 0.0 0.00 0.00 0.00 46 1013.9
20260508153049 62 336 0.0 0.0 0.00 0.00 0.00 48 1013.9
20260508151547 61 335 0.0 0.0 0.00 0.00 0.00 52 1013.7
20260508150046 59 347 0.0 0.0 0.00 0.00 0.00 54 1013.7
20260508144545 58 347 0.0 0.0 0.00 0.00 0.00 58 1013.6
20260508143044 55 347 0.0 0.0 0.00 0.00 0.00 60 1013.4
20260508141549 53 347 0.0 0.0 0.00 0.00 0.00 64 1013.3
20260508140052 51 347 0.0 0.0 0.00 0.00 0.00 71 1013.3
20260508134523 50 347 0.0 0.0 0.00 0.00 0.00 74 1013.0
20260508133021 50 347 0.0 0.0 0.00 0.00 0.00 75 1013.0
20260508131502 49 30 0.0 0.0 0.00 0.00 0.00 74 1012.8
20260508130100 49 28 0.0 0.0 0.00 0.00 0.00 74 1012.5
20260508124546 49 28 0.0 0.0 0.00 0.00 0.00 73 1012.4
20260508123045 49 28 0.0 0.0 0.00 0.00 0.00 73 1012.2
20260508121544 50 28 0.0 0.0 0.00 0.00 0.00 71 1012.2
20260508120047 50 28 0.0 0.0 0.00 0.00 0.00 70 1012.2
20260508114536 51 28 0.0 0.0 0.00 0.00 0.00 69 1012.0
20260508113034 52 28 0.0 0.0 0.00 0.00 0.00 66 1012.0
20260508111550 52 28 0.0 0.0 0.00 0.00 0.00 65 1011.9
20260508110037 52 28 0.0 0.0 0.00 0.00 0.00 66 1011.8
20260508104513 52 28 0.0 0.0 0.00 0.00 0.00 66 1011.8
20260508103025 52 28 0.0 0.0 0.00 0.00 0.00 67 1011.5
20260508101626 52 28 0.0 0.0 0.00 0.00 0.00 66 1011.5
20260508100057 52 28 0.0 0.0 0.00 0.00 0.00 66 1011.4
20260508094607 53 28 0.0 0.0 0.00 0.00 0.00 66 1011.1
20260508093053 53 28 0.0 0.0 0.00 0.00 0.00 65 1011.1
20260508091550 54 28 0.0 0.0 0.00 0.00 0.00 63 1011.0
20260508090059 54 28 0.0 0.0 0.00 0.00 0.00 61 1010.9
20260508084545 55 28 0.0 0.0 0.00 0.00 0.00 59 1010.9
20260508083057 55 28 0.0 0.0 0.00 0.00 0.00 58 1010.9
20260508081524 56 28 0.0 0.0 0.00 0.00 0.00 56 1010.8
20260508080022 56 28 0.0 0.0 0.00 0.00 0.00 55 1010.7
20260508074501 57 28 0.0 0.0 0.00 0.00 0.00 53 1010.6
20260508073059 58 28 0.0 0.0 0.00 0.00 0.00 51 1010.6
20260508071544 59 28 0.0 0.0 0.00 0.00 0.00 49 1010.4
20260508070039 60 28 0.0 0.0 0.00 0.00 0.00 47 1010.4
20260508064547 61 28 0.0 0.0 0.00 0.00 0.00 45 1010.3
20260508063035 61 28 0.0 0.0 0.00 0.00 0.00 43 1010.2
20260508061536 61 28 0.0 0.0 0.00 0.00 0.00 43 1010.1
20260508060033 61 28 0.0 0.0 0.00 0.00 0.00 43 1010.1
20260508054534 62 28 0.0 0.0 0.00 0.00 0.00 43 1010.0
20260508053034 62 28 0.0 0.0 0.00 0.00 0.00 44 1009.8
20260508051516 63 28 0.0 0.0 0.00 0.00 0.00 42 1009.9
20260508050020 63 28 0.0 0.0 0.00 0.00 0.00 41 1009.8
20260508044511 64 28 0.0 0.0 0.00 0.00 0.00 41 1009.8
20260508043009 65 28 0.0 0.0 0.00 0.00 0.00 39 1009.8
20260508041504 66 28 0.0 0.0 0.00 0.00 0.00 36 1009.7
20260508040001 67 28 0.0 0.0 0.00 0.00 0.00 35 1009.7
20260508034603 68 28 0.0 0.0 0.00 0.00 0.00 33 1009.5
20260508033055 70 28 0.0 0.0 0.00 0.00 0.00 32 1009.3
20260508031539 71 28 0.0 0.0 0.00 0.00 0.00 32 1009.0
20260508030036 72 28 0.0 0.0 0.00 0.00 0.00 30 1008.9
20260508024543 73 28 0.0 0.0 0.00 0.00 0.00 28 1008.7
20260508023031 73 28 0.0 0.0 0.00 0.00 0.00 28 1008.5